THEOS

Last updated on Thu Nov 06 2025 00:02:30 GMT+0000 (Coordinated Universal Time)

1 33396U 08049A 25309.33894069 .00000108 00000+0 70575-4 0 9992 2 33396 98.5920 8.5218 0001004 94.0527 266.0765 14.20083577886196
UTC large
Height (km)
Speed (km/s)
/
Latitude / Longitude
Inclination (degrees)
Orbital Period (minutes)
Azimuth
Elevation
Range (km)
Doppler Factor

Next 0 passes for location: London (51.5072 / 0.1276)

Sorry there are no passes over London.